�������l�o���
Date,Time,MP-1(��Sv/h),MP-2(��Sv/h),MP-3(��Sv/h),MP-4(��Sv/h),MP-5(��Sv/h),MP-6(��Sv/h),MP-7(��Sv/h),MP-8(��Sv/h),����,����(m/s),���J
2022/01/13,00:00,0.571,0.856,0.546,1.047,0.731,0.346,0.607,0.576,��,5.4,��
2022/01/13,00:10,0.572,0.857,0.546,1.046,0.733,0.347,0.608,0.577,���k��,4.5,��
2022/01/13,00:20,0.572,0.857,0.544,1.049,0.732,0.348,0.607,0.578,�쐼,4.1,��
2022/01/13,00:30,0.570,0.857,0.545,1.050,0.731,0.348,0.606,0.576,��,3.4,��
2022/01/13,00:40,0.571,0.856,0.546,1.046,0.733,0.348,0.606,0.576,��쐼,2.3,��
2022/01/13,00:50,0.570,0.854,0.546,1.046,0.730,0.347,0.605,0.577,�쐼,3.5,��
2022/01/13,01:00,0.570,0.854,0.547,1.049,0.731,0.347,0.604,0.576,�쐼,4.2,��
2022/01/13,01:10,0.570,0.856,0.546,1.047,0.730,0.345,0.607,0.576,�쐼,4.3,��
2022/01/13,01:20,0.570,0.855,0.545,1.047,0.732,0.347,0.606,0.578,��,4.4,��
2022/01/13,01:30,0.570,0.855,0.546,1.047,0.729,0.349,0.607,0.576,��,4.3,��
2022/01/13,01:40,0.572,0.855,0.546,1.049,0.732,0.347,0.605,0.577,���쐼,3.6,��
2022/01/13,01:50,0.571,0.852,0.545,1.047,0.732,0.347,0.607,0.576,�쐼,3.4,��
2022/01/13,02:00,0.571,0.853,0.546,1.047,0.732,0.346,0.605,0.576,��쐼,4.1,��
2022/01/13,02:10,0.570,0.855,0.545,1.049,0.732,0.347,0.606,0.575,��쐼,4.4,��
2022/01/13,02:20,0.570,0.854,0.545,1.047,0.732,0.347,0.605,0.576,��쐼,3.4,��
2022/01/13,02:30,0.570,0.853,0.545,1.049,0.731,0.347,0.606,0.577,��쐼,4.7,��
2022/01/13,02:40,0.568,0.857,0.544,1.047,0.731,0.346,0.607,0.576,��쐼,4.2,��
2022/01/13,02:50,0.570,0.855,0.547,1.050,0.732,0.348,0.605,0.576,��쐼,4.7,��
2022/01/13,03:00,0.569,0.854,0.544,1.049,0.731,0.347,0.607,0.575,��쐼,5.5,��
2022/01/13,03:10,0.570,0.856,0.547,1.048,0.731,0.346,0.606,0.575,�쐼,5.6,��
2022/01/13,03:20,0.569,0.853,0.544,1.047,0.732,0.348,0.605,0.575,�쐼,5.7,��
2022/01/13,03:30,0.571,0.855,0.545,1.048,0.731,0.346,0.605,0.575,���쐼,4.9,��
2022/01/13,03:40,0.571,0.855,0.546,1.048,0.732,0.346,0.606,0.576,���쐼,5.0,��
2022/01/13,03:50,0.570,0.853,0.544,1.047,0.731,0.346,0.606,0.576,���쐼,5.8,��
2022/01/13,04:00,0.570,0.854,0.544,1.046,0.731,0.346,0.606,0.576,���쐼,7.4,��
2022/01/13,04:10,0.570,0.854,0.546,1.048,0.732,0.347,0.607,0.574,���쐼,7.2,��
2022/01/13,04:20,0.568,0.855,0.546,1.047,0.732,0.347,0.605,0.575,���쐼,5.2,��
2022/01/13,04:30,0.569,0.855,0.545,1.048,0.733,0.347,0.606,0.574,���쐼,4.6,��
2022/01/13,04:40,0.569,0.855,0.546,1.049,0.731,0.347,0.606,0.576,��,5.8,��
2022/01/13,04:50,0.570,0.854,0.546,1.049,0.732,0.348,0.606,0.576,���쐼,4.5,��
2022/01/13,05:00,0.570,0.854,0.546,1.049,0.732,0.347,0.607,0.577,���쐼,3.2,��
2022/01/13,05:10,0.572,0.854,0.545,1.046,0.731,0.347,0.608,0.577,���쐼,4.4,��
2022/01/13,05:20,0.570,0.855,0.547,1.048,0.730,0.348,0.606,0.576,�쐼,2.9,��
2022/01/13,05:30,0.571,0.854,0.547,1.049,0.732,0.347,0.606,0.577,�쐼,2.9,��
2022/01/13,05:40,0.570,0.854,0.546,1.049,0.731,0.348,0.607,0.577,�쐼,3.4,��
2022/01/13,05:50,0.572,0.856,0.546,1.049,0.732,0.348,0.604,0.575,��,4.2,��
2022/01/13,06:00,0.572,0.854,0.546,1.045,0.729,0.347,0.607,0.575,��,2.3,��
2022/01/13,06:10,0.571,0.854,0.545,1.047,0.731,0.347,0.607,0.575,��쓌,3.4,��
2022/01/13,06:20,0.571,0.855,0.546,1.047,0.731,0.347,0.605,0.576,��,3.6,��
2022/01/13,06:30,0.570,0.854,0.544,1.048,0.730,0.347,0.607,0.576,��,4.4,��
2022/01/13,06:40,0.570,0.856,0.545,1.047,0.730,0.347,0.607,0.577,��,3.8,��
2022/01/13,06:50,0.571,0.854,0.546,1.047,0.731,0.347,0.606,0.577,��,4.2,��
2022/01/13,07:00,0.569,0.857,0.544,1.049,0.732,0.346,0.606,0.574,��,4.4,��
2022/01/13,07:10,0.570,0.854,0.547,1.048,0.730,0.347,0.606,0.578,��쐼,4.7,��
2022/01/13,07:20,0.571,0.855,0.547,1.047,0.733,0.347,0.606,0.575,��,3.8,��
2022/01/13,07:30,0.570,0.857,0.547,1.048,0.733,0.347,0.608,0.574,��쐼,3.5,��
2022/01/13,07:40,0.572,0.855,0.547,1.048,0.731,0.347,0.607,0.577,�쐼,2.8,��
2022/01/13,07:50,0.571,0.853,0.547,1.048,0.730,0.347,0.606,0.575,�쐼,0.9,��
2022/01/13,08:00,0.570,0.855,0.545,1.048,0.730,0.346,0.606,0.575,���쐼,0.6,��
2022/01/13,08:10,0.570,0.852,0.545,1.048,0.732,0.346,0.606,0.575,���k��,0.9,��
2022/01/13,08:20,0.569,0.854,0.546,1.051,0.731,0.347,0.607,0.575,�k��,1.2,��
2022/01/13,08:30,0.570,0.852,0.545,1.049,0.731,0.347,0.605,0.576,�k��,1.5,��
2022/01/13,08:40,0.569,0.851,0.546,1.048,0.733,0.346,0.607,0.575,�k�k��,2.3,��
2022/01/13,08:50,0.571,0.854,0.545,1.049,0.731,0.348,0.607,0.576,�k�k��,1.5,��
2022/01/13,09:00,0.570,0.853,0.544,1.048,0.730,0.346,0.606,0.575,-,CALM,��
2022/01/13,09:10,0.570,0.852,0.546,1.049,0.729,0.348,0.606,0.574,��,1.5,��
2022/01/13,09:20,0.570,0.852,0.546,1.048,0.731,0.348,0.607,0.575,��쐼,1.4,��
2022/01/13,09:30,0.570,0.854,0.546,1.047,0.730,0.348,0.607,0.576,��쐼,1.5,��
2022/01/13,09:40,0.571,0.854,0.546,1.049,0.731,0.348,0.608,0.576,��,2.5,��
2022/01/13,09:50,0.573,0.853,0.546,1.049,0.732,0.347,0.608,0.576,��,2.8,��
2022/01/13,10:00,0.572,0.854,0.546,1.049,0.730,0.347,0.608,0.576,��쓌,2.0,��
2022/01/13,10:10,0.571,0.855,0.547,1.049,0.732,0.348,0.606,0.576,��쓌,1.7,��
2022/01/13,10:20,0.572,0.855,0.546,1.048,0.733,0.347,0.605,0.576,��쓌,2.3,��
2022/01/13,10:30,0.566,0.854,0.547,1.049,0.733,0.347,0.605,0.575,��,0.6,��
2022/01/13,10:40,0.566,0.853,0.541,1.050,0.733,0.348,0.605,0.575,-,CALM,��
2022/01/13,10:50,0.566,0.853,0.548,1.050,0.733,0.348,0.605,0.576,�k��,2.3,��
2022/01/13,11:00,0.567,0.853,0.549,1.048,0.734,0.349,0.606,0.577,��,5.4,��
2022/01/13,11:10,0.568,0.854,0.548,1.049,0.734,0.348,0.605,0.577,���k��,6.0,��
2022/01/13,11:20,0.567,0.855,0.549,1.049,0.731,0.348,0.606,0.577,��,5.9,��
2022/01/13,11:30,0.567,0.853,0.547,1.051,0.729,0.348,0.606,0.576,���k��,4.0,��
2022/01/13,11:40,0.572,0.854,0.549,1.051,0.736,0.349,0.606,0.578,�k�k��,4.3,��
2022/01/13,11:50,0.574,0.854,0.547,1.049,0.737,0.347,0.604,0.577,�k,6.1,��
2022/01/13,12:00,0.575,0.855,0.547,1.051,0.735,0.349,0.605,0.577,�k,7.3,��
2022/01/13,12:10,0.575,0.856,0.549,1.051,0.736,0.349,0.605,0.577,�k,6.7,��
2022/01/13,12:20,0.573,0.853,0.548,1.051,0.736,0.349,0.606,0.578,�k�k��,6.8,��
2022/01/13,12:30,0.575,0.852,0.548,1.051,0.736,0.349,0.606,0.577,�k�k��,5.8,��
2022/01/13,12:40,0.575,0.855,0.547,1.051,0.735,0.350,0.608,0.577,�k�k��,6.7,��
2022/01/13,12:50,0.576,0.853,0.548,1.052,0.735,0.350,0.606,0.577,�k�k��,6.6,��
2022/01/13,13:00,0.575,0.854,0.547,1.052,0.737,0.347,0.609,0.576,�k��,5.8,��
2022/01/13,13:10,0.576,0.855,0.548,1.052,0.738,0.349,0.609,0.578,�k�k��,6.2,��
2022/01/13,13:20,0.575,0.854,0.548,1.051,0.737,0.351,0.609,0.579,�k�k��,5.0,��
2022/01/13,13:30,0.575,0.855,0.549,1.052,0.737,0.350,0.611,0.578,�k�k��,6.7,��
2022/01/13,13:40,0.574,0.858,0.549,1.052,0.737,0.349,0.610,0.578,�k�k��,6.8,��
2022/01/13,13:50,0.576,0.857,0.549,1.051,0.737,0.350,0.609,0.577,�k�k��,6.3,��
2022/01/13,14:00,0.576,0.854,0.549,1.052,0.736,0.351,0.611,0.577,�k�k��,4.5,��
2022/01/13,14:10,0.575,0.857,0.550,1.054,0.738,0.350,0.610,0.579,�k�k��,4.6,��
2022/01/13,14:20,0.573,0.857,0.549,1.053,0.737,0.349,0.611,0.579,�k�k��,6.1,��
2022/01/13,14:30,0.575,0.856,0.547,1.053,0.737,0.350,0.609,0.578,�k,3.8,��
2022/01/13,14:40,0.575,0.854,0.550,1.051,0.738,0.350,0.609,0.578,�k�k��,3.5,��
2022/01/13,14:50,0.575,0.857,0.549,1.051,0.737,0.348,0.610,0.580,�k�k��,3.4,��
2022/01/13,15:00,0.574,0.858,0.549,1.053,0.738,0.349,0.611,0.577,�k�k��,3.3,��
2022/01/13,15:10,0.573,0.858,0.551,1.053,0.737,0.349,0.609,0.580,�k�k��,3.9,��
2022/01/13,15:20,0.575,0.860,0.551,1.053,0.738,0.350,0.610,0.578,�k,2.8,��
2022/01/13,15:30,0.574,0.858,0.551,1.053,0.738,0.351,0.611,0.578,�k�k��,2.5,��
2022/01/13,15:40,0.574,0.859,0.551,1.052,0.736,0.351,0.611,0.578,�k,2.8,��
2022/01/13,15:50,0.574,0.858,0.549,1.051,0.739,0.350,0.610,0.577,�k,3.2,��
2022/01/13,16:00,0.575,0.859,0.550,1.052,0.738,0.349,0.610,0.579,�k,1.7,��
2022/01/13,16:10,0.576,0.859,0.549,1.054,0.739,0.349,0.609,0.579,�k,2.6,��
2022/01/13,16:20,0.574,0.860,0.549,1.053,0.738,0.350,0.610,0.579,�k,3.1,��
2022/01/13,16:30,0.575,0.858,0.550,1.053,0.738,0.351,0.609,0.578,�k�k��,3.4,��
2022/01/13,16:40,0.575,0.860,0.549,1.054,0.736,0.350,0.609,0.577,�k�k��,2.6,��
2022/01/13,16:50,0.576,0.860,0.549,1.054,0.737,0.351,0.610,0.578,�k��,3.1,��
2022/01/13,17:00,0.575,0.860,0.549,1.053,0.739,0.350,0.609,0.577,�k��,3.7,��
2022/01/13,17:10,0.575,0.858,0.550,1.053,0.738,0.349,0.609,0.578,�k��,5.1,��
2022/01/13,17:20,0.574,0.860,0.549,1.052,0.737,0.350,0.609,0.577,�k��,3.9,��
2022/01/13,17:30,0.575,0.860,0.548,1.053,0.738,0.350,0.609,0.577,�k��,3.5,��
2022/01/13,17:40,0.577,0.862,0.550,1.053,0.738,0.349,0.608,0.576,���k��,3.4,��
2022/01/13,17:50,0.575,0.858,0.550,1.052,0.739,0.350,0.608,0.578,���k��,4.5,��
2022/01/13,18:00,0.574,0.859,0.549,1.051,0.736,0.349,0.609,0.577,���k��,5.3,��
2022/01/13,18:10,0.574,0.860,0.549,1.052,0.738,0.348,0.609,0.577,�k��,4.0,��
2022/01/13,18:20,0.576,0.859,0.547,1.052,0.739,0.350,0.610,0.578,�k�k��,3.8,��
2022/01/13,18:30,0.574,0.859,0.548,1.053,0.737,0.350,0.609,0.578,�k��,4.8,��
2022/01/13,18:40,0.574,0.858,0.550,1.052,0.737,0.350,0.609,0.577,�k�k��,5.6,��
2022/01/13,18:50,0.574,0.858,0.550,1.050,0.738,0.348,0.607,0.579,�k�k��,5.7,��
2022/01/13,19:00,0.574,0.863,0.549,1.054,0.737,0.350,0.609,0.577,�k�k��,5.8,��
2022/01/13,19:10,0.575,0.860,0.548,1.054,0.739,0.350,0.609,0.578,�k��,4.5,��
2022/01/13,19:20,0.574,0.859,0.550,1.053,0.738,0.349,0.609,0.576,�k��,5.7,��
2022/01/13,19:30,0.574,0.860,0.549,1.053,0.739,0.349,0.610,0.576,�k�k��,6.6,��
2022/01/13,19:40,0.576,0.861,0.550,1.052,0.738,0.349,0.608,0.577,�k��,6.3,��
2022/01/13,19:50,0.574,0.861,0.548,1.054,0.740,0.348,0.609,0.579,�k��,5.5,��
2022/01/13,20:00,0.575,0.859,0.547,1.052,0.740,0.348,0.608,0.578,�k�k��,7.6,��
2022/01/13,20:10,0.574,0.860,0.551,1.053,0.738,0.348,0.609,0.576,�k��,5.7,��
2022/01/13,20:20,0.575,0.860,0.549,1.055,0.739,0.347,0.610,0.578,���k��,3.9,��
2022/01/13,20:30,0.573,0.860,0.549,1.051,0.738,0.348,0.609,0.577,�k��,4.8,��
2022/01/13,20:40,0.574,0.860,0.549,1.056,0.738,0.348,0.609,0.578,�k�k��,4.2,��
2022/01/13,20:50,0.576,0.860,0.549,1.054,0.739,0.349,0.610,0.577,�k��,5.8,��
2022/01/13,21:00,0.575,0.860,0.548,1.053,0.740,0.349,0.608,0.577,�k��,9.3,��
2022/01/13,21:10,0.575,0.861,0.549,1.053,0.739,0.349,0.609,0.578,���k��,7.5,��
2022/01/13,21:20,0.574,0.859,0.548,1.052,0.740,0.348,0.610,0.577,���k��,6.3,��
2022/01/13,21:30,0.573,0.861,0.547,1.052,0.737,0.349,0.610,0.577,���k��,6.5,��
2022/01/13,21:40,0.575,0.859,0.546,1.052,0.738,0.348,0.609,0.578,�k��,5.5,��
2022/01/13,21:50,0.575,0.858,0.546,1.053,0.737,0.348,0.611,0.577,�k��,3.4,��
2022/01/13,22:00,0.572,0.860,0.545,1.053,0.738,0.350,0.610,0.576,�k��,2.3,��
2022/01/13,22:10,0.574,0.857,0.547,1.054,0.738,0.349,0.608,0.578,�k��,2.0,��
2022/01/13,22:20,0.572,0.862,0.546,1.052,0.739,0.351,0.609,0.578,�k��,2.3,��
2022/01/13,22:30,0.573,0.861,0.548,1.051,0.739,0.349,0.608,0.578,�k�k��,0.6,��
2022/01/13,22:40,0.573,0.859,0.548,1.053,0.740,0.348,0.608,0.579,��,2.5,��
2022/01/13,22:50,0.573,0.860,0.549,1.055,0.738,0.349,0.609,0.578,��,2.3,��
2022/01/13,23:00,0.573,0.859,0.548,1.052,0.741,0.349,0.609,0.578,��,7.2,��
2022/01/13,23:10,0.573,0.860,0.546,1.053,0.739,0.351,0.607,0.577,��,13.0,��
2022/01/13,23:20,0.575,0.862,0.548,1.053,0.739,0.349,0.610,0.577,��,11.0,��
2022/01/13,23:30,0.573,0.859,0.548,1.051,0.735,0.348,0.611,0.579,��,10.6,��
2022/01/13,23:40,0.574,0.859,0.546,1.052,0.736,0.347,0.609,0.578,��,11.3,��
2022/01/13,23:50,0.573,0.859,0.546,1.053,0.735,0.347,0.609,0.577,��,12.0,��
